RH
51 50 50 52 56 61 64 64 64 63 61 60 59 56 53 50 47 46 46 47 47 48 49 50 51 53 53 53 52 50 48 45 42 40 39 39 39 38 37 36 35 34 33 32 32 31 31 31 30 30 31 30 30 32 31 27 25 25 27 27 27 26 26 26 26 26 27 29 31 32 32 32 32 29 28 27 31 40 35 28 28 31 33 33 33 34 37 41
55 54 53 53 56 60 64 66 67 67 66 64 62 60 57 54 50 48 48 48 50 52 53 54 56 57 58 58 57 56 53 50 48 45 43 42 42 42 41 40 39 39 38 38 36 35 35 34 34 34 34 34 36 38 36 32 29 28 30 30 29 29 31 30 29 29 29 31 31 30 30 33 35 33 32 31 31 37 37 31 30 34 40 41 42 41 41 44
59 57 55 55 57 60 63 66 68 69 70 69 67 65 62 59 55 52 51 52 53 55 57 58 60 61 61 62 62 61 59 56 55 53 49 47 46 46 45 44 44 43 42 42 41 39 38 37 37 37 37 37 39 42 41 36 33 32 33 34 32 32 36 36 34 34 34 35 33 31 30 32 37 35 33 33 34 37 37 33 30 33 40 45 48 49 48 47
61 61 59 57 58 60 62 65 68 71 72 73 72 70 69 66 63 58 56 56 57 59 60 61 62 63 63 65 67 67 65 64 64 60 57 54 52 50 49 48 48 48 47 46 45 43 41 40 41 40 40 41 43 46 45 41 38 37 38 39 37 36 40 42 39 40 42 40 37 35 33 35 40 39 37 38 38 39 39 36 33 32 35 41 47 53 56 55
62 64 62 60 59 59 61 64 69 73 75 76 76 75 74 73 71 67 63 61 61 62 64 64 64 65 66 68 71 72 71 73 71 67 65 63 60 59 56 55 54 53 53 52 51 49 47 47 47 47 47 50 51 51 51 49 47 46 46 47 46 43 44 46 46 47 48 46 42 40 37 39 42 40 39 41 40 40 40 40 38 35 35 38 45 53 60 62
64 66 66 64 62 60 61 65 70 76 79 80 80 79 78 78 76 74 70 68 66 65 66 67 67 68 70 72 74 75 77 81 79 75 74 71 69 68 65 63 61 60 59 59 59 57 56 56 57 57 56 59 60 60 62 61 59 56 56 59 58 55 53 53 54 55 54 50 48 46 42 44 46 42 41 42 42 41 42 43 44 43 42 39 41 46 53 58
67 68 69 67 65 63 63 66 72 78 83 84 85 83 82 81 80 78 76 74 72 70 69 69 70 72 74 75 77 77 79 86 87 85 85 82 78 76 73 71 68 66 64 63 63 62 63 63 65 64 63 66 68 69 72 72 69 63 60 63 64 65 63 62 65 66 65 59 57 55 51 53 54 49 47 48 48 46 46 47 50 51 51 48 42 40 41 45
72 70 71 69 68 67 67 69 74 81 87 89 88 88 86 83 83 81 80 79 77 75 73 73 73 75 78 79 80 81 82 89 92 92 93 92 89 85 81 78 75 73 71 69 68 66 67 69 70 70 70 72 74 77 80 80 75 67 63 62 63 67 66 67 70 70 69 66 68 69 62 60 58 52 49 49 50 50 48 50 53 55 57 56 50 41 37 36
73 72 71 71 71 71 71 73 77 83 89 92 92 91 90 87 86 85 84 82 80 79 79 80 79 80 81 82 85 85 85 92 96 97 98 98 97 94 91 87 84 81 79 77 75 74 75 76 77 76 77 77 76 80 83 82 78 71 69 66 64 66 64 66 67 63 63 64 70 75 68 64 60 53 48 46 49 49 48 52 56 57 59 60 57 50 43 39
70 70 70 72 75 76 76 76 80 85 91 94 95 95 94 93 91 89 87 85 84 85 85 87 88 88 88 88 91 88 88 94 98 100 102 102 101 100 98 94 91 90 89 86 84 84 84 84 85 82 82 81 79 82 84 83 79 76 76 73 69 70 69 69 66 59 57 57 63 69 66 62 57 52 46 44 47 46 45 52 59 58 56 55 55 54 51 45
71 71 71 73 77 80 80 79 82 87 92 96 97 99 98 98 96 91 88 87 89 92 93 95 96 97 95 96 98 91 91 96 96 98 102 103 103 101 99 96 93 93 95 94 93 92 92 92 92 91 91 89 87 87 86 83 82 81 80 78 75 77 78 75 72 66 62 60 63 68 67 62 55 48 42 41 45 43 41 48 54 52 48 47 48 50 49 45
77 77 76 75 78 82 82 81 83 87 92 96 99 101 101 101 97 90 88 89 93 97 99 102 103 105 105 106 104 98 98 101 98 98 100 102 104 102 100 98 96 96 97 96 96 94 95 96 96 98 100 99 96 93 91 88 85 85 85 85 82 83 86 80 77 73 67 66 67 71 76 74 62 48 41 43 45 42 42 45 47 47 44 44 45 47 47 44
81 82 82 81 79 81 82 81 81 84 90 95 100 103 104 103 97 91 91 93 95 98 102 107 110 110 108 108 105 102 102 101 99 100 100 101 102 100 101 102 101 101 99 96 94 92 92 94 96 101 104 104 103 100 98 94 90 89 91 93 91 93 92 83 80 77 71 70 71 74 83 87 74 55 48 51 51 47 46 46 44 45 47 51 52 51 49 47
87 86 86 87 85 83 83 83 82 82 88 95 101 105 106 105 101 96 95 95 97 101 105 108 107 105 103 103 102 101 102 100 100 101 101 101 101 102 105 106 106 106 104 101 99 97 95 94 96 101 104 106 108 107 101 95 94 96 98 101 104 105 100 90 86 82 75 72 75 78 87 93 79 60 57 61 61 57 55 51 45 44 47 53 55 54 53 51
96 93 90 90 91 90 88 87 87 85 87 92 99 105 107 108 106 102 99 99 101 105 107 105 102 101 101 101 100 100 101 101 101 101 102 102 102 105 106 106 107 107 105 104 103 102 99 97 98 103 105 107 108 104 94 88 92 97 99 104 108 108 105 98 90 82 77 74 77 81 89 96 82 63 61 67 72 72 66 59 52 48 48 49 50 52 53 52
102 102 100 97 95 95 95 95 94 92 91 92 98 106 110 110 109 106 104 104 106 107 106 103 102 101 101 101 100 100 101 101 102 100 101 102 102 106 107 106 108 108 107 108 108 106 102 99 101 104 106 107 103 93 86 90 97 96 96 101 104 106 106 102 91 81 81 82 87 92 96 101 94 77 66 67 79 85 78 69 63 58 54 50 48 50 52 53
105 104 105 105 103 100 99 100 101 100 99 98 101 108 111 110 109 107 106 107 108 107 104 102 102 101 101 101 100 100 101 100 98 95 96 99 103 106 107 107 108 110 111 112 111 107 104 103 106 106 106 106 98 89 90 100 104 99 97 99 102 103 104 104 95 83 84 88 94 100 101 104 104 91 77 75 85 93 91 87 82 77 71 64 59 57 56 57
104 104 104 105 105 106 105 104 104 105 106 106 108 111 111 109 106 104 104 104 103 104 103 102 102 102 102 102 102 102 101 98 96 94 95 99 101 102 103 105 106 108 109 108 106 104 105 107 107 106 105 102 94 93 100 105 103 100 101 102 104 103 101 102 94 83 86 93 96 97 98 102 104 98 92 92 94 96 96 95 94 92 90 87 83 81 79 80
102 103 105 104 103 105 107 107 109 110 110 109 109 108 107 105 102 102 102 101 101 103 103 102 104 104 103 104 106 105 101 99 100 100 99 98 97 96 99 102 103 105 103 101 102 105 107 107 106 105 103 98 94 98 103 102 99 99 100 101 104 104 103 102 93 88 94 99 101 99 98 102 105 102 101 101 99 99 99 98 99 99 99 98 97 98 98 98
101 101 102 103 104 104 104 106 109 112 111 107 105 104 102 101 101 101 101 101 101 102 102 103 106 106 107 108 107 105 103 103 104 104 101 98 95 95 100 104 101 99 96 97 105 109 106 104 103 101 98 94 94 96 97 96 96 96 95 95 96 98 99 99 95 96 99 100 102 101 99 102 104 103 102 102 102 102 103 102 101 100 100 100 99 101 99 97
101 101 100 100 102 102 102 103 104 107 107 104 105 104 101 100 101 101 101 101 101 102 102 103 105 108 110 109 106 104 105 106 105 104 102 101 100 101 104 103 99 97 94 94 102 106 105 103 101 97 93 90 88 88 87 86 86 85 84 84 84 83 84 85 84 85 86 85 87 88 89 90 93 95 96 96 97 97 99 100 100 100 100 101 100 100 100 98
100 100 101 101 101 100 100 102 103 104 103 102 104 104 102 101 100 100 100 101 101 100 101 105 106 108 110 109 105 102 103 105 104 102 101 102 103 103 104 103 102 102 98 97 102 105 103 102 102 97 92 86 81 79 78 77 76 75 74 74 73 73 73 73 73 73 73 73 74 74 74 74 75 76 76 77 76 75 76 77 78 79 81 83 85 87 90 91
101 103 104 101 100 101 100 100 101 102 102 101 102 102 102 101 100 101 100 100 101 99 100 107 110 109 110 107 103 101 104 107 106 104 104 103 103 103 104 105 104 101 101 103 104 101 100 104 105 97 87 80 75 72 71 70 69 67 67 68 68 69 68 68 69 68 67 66 65 63 61 59 58 56 54 54 52 50 49 49 49 49 50 51 53 56 59 62
100 105 108 105 102 100 100 100 100 101 101 101 102 102 102 102 101 101 100 99 101 102 100 103 108 107 104 102 101 104 108 110 108 107 107 107 106 103 102 103 101 101 105 103 99 98 102 106 102 90 79 73 70 68 67 66 64 63 65 66 67 65 63 61 61 60 58 58 56 54 51 49 49 46 45 44 43 41 39 39 39 39 40 41 41 41 42 44
100 102 106 107 106 104 101 100 101 100 101 101 102 102 103 104 103 100 96 92 96 105 103 97 97 96 94 97 102 107 107 106 106 104 103 103 100 93 91 92 90 92 98 97 94 93 92 89 81 73 68 66 66 66 66 63 60 62 64 63 61 59 57 55 52 49 48 47 46 45 43 42 42 42 43 43 42 43 43 44 46 46 47 47 47 47 46 46
101 100 101 103 104 105 102 100 101 100 101 101 101 103 103 104 104 101 96 87 89 103 104 93 87 86 91 95 99 104 103 102 102 97 94 91 85 80 82 84 79 76 80 80 77 75 77 77 73 71 70 69 70 68 66 63 61 65 64 61 59 59 59 54 48 46 45 44 43 43 43 42 41 42 46 47 46 48 49 50 50 50 50 50 50 50 50 50
101 100 100 102 103 103 102 101 101 100 101 101 100 102 102 102 103 104 101 91 88 101 103 94 88 88 94 98 98 100 101 100 100 93 87 79 72 73 77 75 69 64 64 63 63 69 80 85 82 81 79 76 75 71 67 65 64 66 63 60 59 59 59 53 48 48 47 46 45 45 48 47 44 44 46 49 49 49 48 47 46 45 45 45 46 46 46 47
100 97 94 95 97 98 100 101 100 100 100 100 101 101 101 102 102 104 105 94 90 103 105 98 98 98 101 105 103 102 100 101 101 95 87 77 71 75 75 69 66 66 68 70 74 81 88 91 91 90 88 84 80 73 70 69 67 64 62 61 59 56 55 53 51 51 49 46 42 44 47 45 42 43 44 46 46 45 45 45 45 44 45 45 45 45 45 44
101 98 92 88 85 85 90 98 102 102 100 99 100 100 102 101 100 104 102 88 87 102 106 103 105 106 106 105 105 106 103 99 99 95 87 79 77 79 79 79 83 89 93 91 90 92 93 97 99 98 96 91 84 81 80 75 68 64 65 67 63 55 53 56 56 53 48 44 41 42 43 39 38 40 40 40 39 39 39 40 41 42 44 45 47 47 47 47
98 100 100 98 94 89 91 97 102 103 101 102 101 100 102 100 101 103 89 79 88 98 102 106 107 107 108 106 104 106 101 94 92 88 82 79 80 84 88 94 100 104 103 100 100 102 101 102 104 104 101 96 93 94 89 78 69 64 65 67 63 57 58 60 57 51 46 42 39 39 39 36 34 35 35 34 33 33 33 35 36 37 39 40 42 43 44 45
90 96 99 101 101 101 102 102 102 103 101 100 100 97 97 99 101 93 77 83 99 97 97 105 106 107 109 107 104 104 102 97 92 87 83 81 83 90 97 102 103 103 102 104 105 101 98 100 103 105 103 101 100 98 92 83 71 61 60 63 62 60 60 57 52 46 42 39 36 36 35 33 32 32 32 30 28 28 29 31 33 34 35 36 37 39 40 40
98 101 104 103 101 102 103 102 103 102 99 99 98 91 88 88 83 75 75 92 103 98 100 105 106 108 108 106 105 104 104 103 100 97 94 93 94 98 103 103 102 100 99 98 95 89 89 93 97 99 101 101 99 97 93 84 69 56 55 59 60 58 55 50 45 42 39 37 35 35 34 32 32 32 33 32 30 30 30 32 34 35 34 35 36 38 38 39
107 103 105 104 102 102 100 100 102 99 99 101 98 94 92 84 74 74 85 98 102 103 107 107 105 106 102 102 105 103 103 103 103 103 102 103 103 102 103 102 102 101 97 94 92 89 90 90 91 94 95 95 94 92 85 73 62 54 50 50 50 49 46 43 40 38 35 35 34 34 33 31 31 33 37 39 36 38 42 44 43 40 40 41 42 42 43 43
103 88 93 99 95 99 101 100 101 100 101 101 100 102 98 84 81 92 100 101 103 106 107 107 107 104 99 100 102 102 103 104 104 104 105 106 106 105 106 106 106 104 100 99 99 94 88 85 85 86 87 89 89 83 73 63 56 50 46 45 43 42 41 39 37 34 34 34 33 32 31 31 33 36 38 40 41 49 55 53 51 52 55 57 57 58 58 53
101 75 80 97 94 95 100 100 100 101 101 101 101 97 83 79 92 105 107 104 105 107 107 105 103 102 101 102 103 102 103 104 106 108 108 107 107 108 108 109 108 105 102 102 98 89 81 78 76 75 76 78 77 69 62 56 51 48 46 43 41 42 40 37 34 34 34 32 30 32 32 34 39 39 39 44 50 57 59 56 59 64 67 70 74 75 71 63
102 70 65 88 99 99 99 100 101 101 101 102 101 85 69 79 97 101 102 103 103 106 108 105 102 102 103 104 104 104 103 102 103 107 108 107 107 108 108 109 107 102 100 99 91 81 75 73 71 69 66 63 59 56 52 49 47 45 43 43 44 42 39 37 36 35 36 34 33 35 36 40 44 43 47 56 59 59 60 61 67 73 78 82 81 78 73 68
102 77 60 69 92 105 103 102 104 103 101 101 94 76 69 84 96 96 97 100 102 106 107 106 104 102 101 100 100 103 105 104 102 103 107 107 105 105 106 106 105 102 97 89 81 76 73 72 70 66 62 57 53 50 48 46 46 46 47 47 45 41 39 39 38 38 42 42 37 39 43 47 48 48 55 63 61 61 65 70 78 85 89 89 84 80 75 69
103 93 74 60 75 99 104 103 104 103 101 95 80 68 71 84 95 102 105 104 105 105 101 103 105 103 99 94 93 98 103 105 104 102 104 106 103 103 104 104 105 107 100 85 77 77 77 80 80 75 69 63 54 49 48 47 47 48 49 46 42 40 37 37 39 43 46 43 39 43 47 47 51 58 63 65 65 69 76 84 93 98 98 95 89 83 81 79
103 101 85 61 59 81 95 98 103 106 100 83 66 65 78 88 94 101 104 104 104 100 95 98 104 106 103 95 94 97 99 103 106 105 105 105 104 103 102 100 101 107 109 98 84 82 89 96 100 97 86 71 57 51 50 49 48 47 46 43 40 39 41 47 50 47 47 50 51 52 50 48 59 68 66 68 78 88 97 102 105 105 100 96 91 83 85 92
99 94 85 66 51 61 80 89 97 102 93 78 71 76 89 96 94 93 95 98 101 101 101 103 104 106 106 103 99 98 101 104 105 106 106 106 106 105 103 103 104 106 112 109 97 98 103 100 95 94 86 73 63 56 50 48 47 46 44 41 42 50 61 64 57 55 66 76 74 69 61 58 68 73 69 78 94 102 107 108 106 105 97 87 89 92 95 99
91 85 81 71 51 48 67 81 88 90 82 76 75 76 82 89 91 93 95 91 82 75 77 84 92 100 107 108 101 96 100 104 105 107 106 104 105 105 102 104 105 103 108 111 107 104 97 82 74 75 73 66 59 52 47 45 44 42 40 42 50 60 65 66 65 73 89 92 85 82 77 70 75 77 78 92 104 105 106 105 96 91 91 93 101 101 97 98
73 70 70 66 50 42 54 70 82 86 82 75 66 57 57 71 86 92 85 68 49 43 46 53 66 83 98 104 103 102 101 101 102 104 103 102 104 105 104 105 107 108 108 104 94 83 73 65 63 63 58 52 48 45 44 43 41 41 43 48 55 58 62 73 80 85 92 90 86 90 86 75 76 85 96 106 105 96 95 98 92 86 90 102 112 105 90 94
56 52 55 55 48 45 52 62 67 71 77 81 75 59 45 49 66 72 64 51 40 39 42 45 50 62 76 86 94 100 99 94 92 90 87 83 81 83 88 93 99 101 94 81 68 63 61 59 55 51 46 43 42 41 41 40 41 45 49 52 60 69 79 88 90 89 91 87 86 91 86 76 82 97 106 107 100 91 85 88 95 102 102 96 98 103 98 97
56 46 47 47 46 45 51 63 65 62 66 76 82 72 52 41 42 47 50 51 47 42 43 46 48 51 56 60 66 72 74 72 72 73 70 63 57 58 60 64 69 71 67 61 56 56 54 50 45 42 39 38 39 39 39 40 43 48 54 61 74 87 94 97 95 92 85 77 83 91 87 89 103 108 97 88 89 95 96 96 100 105 105 94 87 96 107 107
58 52 48 46 45 42 42 52 60 60 56 59 65 64 55 45 40 40 45 48 48 46 47 49 50 51 52 52 51 51 52 52 52 55 56 55 55 56 54 53 53 53 53 52 50 49 46 43 42 41 40 39 39 40 41 43 48 53 59 68 79 86 89 90 88 83 78 81 94 101 99 101 104 102 95 89 94 99 98 102 103 92 89 98 100 99 103 107
61 59 56 52 48 44 42 44 47 49 46 46 48 50 49 46 45 48 49 50 50 50 52 52 53 55 55 54 54 53 52 52 50 50 51 53 54 54 53 51 49 48 48 46 43 42 41 41 42 43 44 43 41 43 48 55 64 70 74 81 87 90 92 90 87 84 88 99 103 99 106 106 88 87 99 97 107 117 100 90 94 89 88 100 108 106 102 103
63 58 57 56 51 48 48 48 49 51 51 51 50 51 53 53 52 53 54 55 56 58 61 61 58 59 59 59 62 61 59 58 54 52 53 53 54 54 52 50 48 47 47 45 44 44 44 43 43 46 47 45 46 51 59 68 77 83 90 96 98 101 100 92 89 92 97 111 111 90 93 103 87 90 107 99 102 117 99 83 92 98 102 104 101 103 105 104
66 61 59 59 57 56 55 54 56 58 60 60 57 57 59 58 59 60 60 60 61 65 69 67 65 66 66 68 71 70 68 64 57 54 53 54 54 54 53 50 48 48 48 49 49 48 49 48 48 50 50 49 54 63 71 80 86 89 95 97 99 103 98 86 90 103 102 107 110 88 82 98 92 93 111 106 98 102 94 93 105 104 103 105 101 102 106 105
73 72 71 69 67 66 65 64 64 63 63 63 61 61 62 63 64 65 66 67 67 70 73 72 73 75 77 81 81 75 67 62 60 58 58 60 58 54 52 51 50 51 52 54 54 53 55 53 50 53 57 63 72 82 91 96 97 98 97 96 98 99 96 92 100 115 104 88 94 93 90 102 102 99 109 103 95 102 100 101 110 106 101 103 103 106 107 104
84 81 79 78 77 75 75 76 76 74 71 68 67 65 64 64 65 66 68 71 75 79 80 79 79 82 87 89 83 74 69 70 74 73 70 69 64 58 59 58 57 57 55 57 59 59 59 59 59 67 78 86 91 97 103 100 100 101 92 88 97 99 105 108 102 102 97 84 95 107 98 95 100 105 110 100 93 106 108 102 105 105 103 103 101 105 108 103
96 93 88 86 83 80 79 81 83 83 79 74 71 71 71 72 74 77 77 76 79 81 81 82 86 91 97 96 86 79 78 80 80 76 71 72 71 69 70 66 62 62 60 61 63 63 67 71 77 88 98 101 97 97 101 100 99 91 74 82 104 107 110 113 95 91 101 98 101 109 101 94 95 99 106 101 95 103 106 103 102 98 100 106 103 103 103 94
100 99 97 96 93 89 86 84 84 85 84 84 86 88 90 90 90 92 89 85 86 88 89 94 96 96 99 96 86 83 83 79 79 79 78 80 82 77 75 76 77 77 77 80 80 80 83 87 92 99 103 102 97 94 99 100 91 75 70 94 115 109 106 108 97 99 110 104 96 95 96 102 101 96 101 102 101 104 100 100 103 98 98 106 106 100 91 76
Wind_Speed
37 37 37 36 34 33 32 32 32 32 31 31 32 32 32 33 33 32 31 30 30 29 28 28 27 27 26 26 26 26 26 25 25 25 25 25 25 25 25 24 24 24 24 24 24 23 23 22 22 22 22 21 21 21 22 22 21 20 19 19 19 18 19 19 20 20 20 20 20 21 22 22 22 21 20 18 14 13 12 13 16 16 17 17 15 12 12 13
38 38 38 38 36 35 34 33 33 32 32 32 32 33 33 34 34 33 32 31 30 30 29 29 28 28 27 27 27 27 27 26 25 25 25 25 25 25 25 25 24 24 24 24 24 23 23 23 22 22 22 21 20 21 22 23 22 21 20 20 19 19 19 20 21 21 21 21 22 23 23 23 24 23 22 22 20 18 15 12 14 16 18 20 20 18 18 18
39 39 39 39 38 37 36 35 34 33 33 33 33 33 33 34 34 34 33 32 31 31 31 30 30 29 29 28 28 28 27 27 26 26 26 25 25 26 26 26 25 25 25 24 24 24 23 23 23 22 22 21 20 21 22 23 22 21 21 21 20 19 20 20 20 21 22 23 23 24 24 24 25 26 25 24 23 23 20 15 13 13 15 19 21 22 23 23
40 40 40 40 40 39 38 37 35 35 34 34 34 33 33 34 34 34 34 33 32 32 32 31 31 31 30 29 29 29 28 28 28 27 27 26 26 26 26 26 26 26 26 25 25 25 24 23 23 23 23 22 21 22 23 23 22 22 22 21 21 19 20 21 21 21 23 24 24 24 24 24 26 27 27 27 26 26 23 19 15 14 16 18 21 24 25 26
41 41 41 41 41 41 39 38 37 36 35 35 34 34 34 34 34 34 34 34 34 33 33 33 32 32 31 31 30 30 29 28 29 29 28 27 26 26 27 26 26 27 26 26 26 25 24 23 23 23 23 22 22 23 24 24 23 23 22 22 22 21 21 22 22 22 24 25 25 25 25 25 26 27 27 28 29 28 25 21 18 17 18 20 22 24 26 27
43 42 42 42 42 42 41 39 38 37 37 36 35 35 34 34 34 34 34 35 35 35 35 34 34 33 32 32 32 31 30 29 30 29 29 29 27 27 27 27 27 27 27 27 26 26 25 24 24 24 24 24 24 25 25 25 25 24 23 23 23 23 22 23 23 23 25 26 26 27 26 26 28 28 28 29 30 29 28 25 21 19 21 23 25 26 27 28
44 43 43 43 42 42 41 40 39 38 38 37 37 36 35 34 34 34 34 35 36 36 36 35 35 34 34 34 33 33 31 31 31 30 30 30 29 29 28 28 28 28 28 28 28 27 27 26 26 26 26 26 26 26 26 27 27 26 25 24 24 24 24 23 24 24 26 27 27 28 27 28 31 30 29 29 29 29 29 28 26 24 24 25 27 28 29 29
45 45 44 43 43 42 42 41 40 40 39 38 37 36 36 35 35 35 35 36 36 36 36 36 36 35 35 35 35 34 33 32 33 32 31 31 31 31 30 29 29 29 29 30 29 29 28 28 28 28 28 27 27 27 27 28 28 28 27 26 25 25 25 25 25 26 27 27 27 28 28 29 32 32 31 31 30 30 29 29 29 28 28 28 28 28 29 31
46 46 46 45 43 42 42 42 42 41 40 39 38 37 37 36 36 35 36 36 37 37 36 36 36 36 37 36 36 36 34 34 34 33 33 32 33 32 32 31 30 30 31 31 31 30 30 30 30 30 30 30 29 28 28 29 30 30 29 29 28 28 28 27 29 29 29 29 28 30 30 31 33 33 33 32 32 32 31 30 31 31 32 32 32 30 30 30
48 47 47 46 45 43 43 44 43 43 41 40 39 38 37 37 37 36 37 37 37 37 37 37 37 37 37 37 38 37 34 35 35 34 34 34 34 34 33 33 32 32 32 32 32 32 31 31 32 31 31 32 31 30 31 30 31 31 31 32 31 32 32 31 33 33 32 32 32 34 34 34 35 35 34 33 33 33 32 32 33 34 34 35 35 34 33 32
49 48 48 47 46 45 45 45 45 44 43 41 40 39 39 38 38 38 38 37 37 38 38 38 38 38 38 38 40 38 35 35 35 34 34 34 34 34 34 34 33 33 33 34 33 33 32 32 33 33 33 33 32 32 32 32 32 33 33 34 34 34 36 35 36 36 35 34 35 37 39 39 39 38 36 34 34 35 33 34 36 37 36 36 37 37 37 36
50 49 49 48 48 47 46 46 46 46 44 43 42 41 40 40 39 39 38 38 37 38 38 38 38 38 39 40 41 38 36 36 35 34 34 34 34 34 34 34 33 33 33 34 34 33 33 33 33 33 33 34 34 33 34 34 34 34 34 35 35 35 37 38 38 38 37 36 37 39 41 43 43 41 39 36 37 36 35 36 39 39 39 38 39 39 40 40
51 50 50 50 49 49 48 48 47 47 46 44 43 42 42 41 40 40 39 38 38 38 38 38 38 38 39 41 41 38 37 36 35 34 34 34 34 34 34 34 34 34 34 34 34 34 33 33 33 34 34 35 35 35 35 35 35 35 35 36 36 37 39 39 38 39 38 37 38 39 41 46 47 44 41 39 39 39 37 38 39 40 40 41 41 42 42 42
52 51 51 51 51 50 49 48 48 47 47 46 44 44 43 42 42 41 40 39 39 39 38 38 39 39 39 41 41 39 38 37 35 35 35 34 34 34 34 34 34 35 35 35 35 35 34 34 34 35 36 36 37 37 36 36 36 35 35 35 36 37 39 40 39 39 38 37 37 38 40 46 50 47 43 42 42 41 41 41 40 40 40 42 43 44 44 44
53 52 52 52 51 51 50 49 48 48 48 47 46 45 44 44 43 42 41 40 40 39 39 39 39 39 40 42 41 39 39 38 37 36 36 35 35 35 35 35 35 35 35 35 36 36 35 35 34 35 36 36 37 37 36 35 35 35 34 34 35 36 39 40 40 39 38 37 37 39 40 45 50 49 45 44 43 43 43 43 43 42 42 42 43 44 45 45
54 53 53 53 53 52 51 50 49 49 48 47 47 46 45 45 44 43 42 41 41 40 40 40 40 40 41 43 42 41 40 39 38 38 37 36 36 36 36 36 36 36 36 36 36 35 35 34 34 34 35 36 36 36 35 34 34 34 33 33 35 35 36 40 41 39 37 37 37 38 39 42 47 48 46 45 44 44 44 44 44 44 44 45 45 46 46 46
55 54 54 54 54 52 51 51 50 50 49 49 48 48 47 46 45 44 43 43 42 42 42 41 42 41 42 44 43 43 41 40 40 39 38 37 37 37 37 37 37 36 36 35 35 35 34 33 33 34 35 36 36 35 32 32 34 34 33 33 34 35 36 39 41 39 37 37 36 38 39 40 44 47 47 45 45 45 46 46 46 47 47 48 48 48 48 48
55 54 54 54 54 53 52 52 52 51 51 50 50 49 49 48 47 46 45 45 43 43 43 43 43 42 43 45 45 44 42 41 41 40 39 38 38 38 38 38 37 36 36 35 35 34 32 32 32 33 35 36 35 33 32 33 34 34 33 33 34 35 37 39 41 40 39 38 38 40 40 40 44 47 47 46 46 47 47 48 48 49 50 51 51 51 51 51
55 54 54 54 54 54 54 53 53 53 53 52 52 51 50 49 49 48 48 47 46 46 45 44 45 44 45 46 45 44 42 41 41 40 39 39 38 38 38 38 38 37 37 36 34 33 32 32 33 36 38 37 35 34 34 35 35 35 35 35 35 37 38 41 42 41 40 40 41 43 42 43 46 48 48 48 48 49 49 50 51 52 52 53 54 54 55 55
55 55 54 54 55 55 55 55 55 54 54 54 54 53 52 52 51 51 51 49 49 48 47 46 46 46 46 46 45 43 42 41 40 40 39 39 38 38 38 39 38 38 37 36 34 34 34 34 35 40 40 38 37 37 38 37 37 37 37 37 38 38 40 43 42 42 42 42 43 46 45 46 49 50 50 51 51 51 51 52 54 55 56 56 56 57 58 58
56 55 55 55 55 56 55 56 56 56 56 55 55 55 54 54 53 53 53 52 51 51 49 49 48 47 47 46 45 43 42 41 41 41 41 40 39 38 39 39 39 39 38 37 36 37 36 36 39 43 41 39 39 40 39 39 38 38 38 38 39 40 41 42 42 43 43 42 44 46 46 48 51 52 53 54 54 54 54 55 57 59 59 60 60 60 61 61
57 56 56 56 56 56 56 57 57 58 58 57 57 57 57 56 55 55 55 54 54 53 51 50 49 48 48 46 45 44 43 43 44 43 43 42 41 40 40 40 41 41 40 39 39 39 38 38 43 44 42 41 42 41 41 39 38 38 39 39 39 41 41 41 43 44 44 44 44 46 47 49 53 54 55 56 56 56 57 58 60 61 62 63 63 64 64 64
58 58 58 57 57 57 57 58 58 59 59 59 60 60 59 59 58 58 57 56 56 55 53 52 50 50 50 48 47 46 45 46 47 46 46 45 43 43 41 42 43 42 41 42 42 39 38 40 44 45 44 43 43 43 42 41 41 41 41 41 42 43 43 43 45 46 46 46 46 47 48 50 54 56 56 57 57 57 58 59 61 62 63 64 65 65 66 66
59 59 58 58 58 58 58 59 59 60 61 62 62 62 61 61 61 60 59 58 56 57 55 53 52 51 51 50 48 47 48 50 50 50 50 48 47 46 44 45 44 43 44 45 42 39 39 43 46 46 45 44 45 45 45 46 45 45 45 45 45 46 45 45 47 47 47 48 48 48 47 48 53 56 56 57 57 57 58 60 61 61 62 63 64 65 65 65
60 59 59 59 59 58 59 59 61 62 63 63 63 63 64 64 64 63 62 59 55 57 58 55 53 52 51 51 50 50 50 51 52 53 53 52 50 48 46 46 44 44 46 45 43 40 40 45 48 47 46 46 47 48 49 48 46 46 47 47 47 47 47 47 47 47 46 46 47 48 46 45 50 53 54 56 54 54 56 57 58 59 59 61 62 63 63 64
61 60 60 60 59 59 59 60 62 63 64 64 64 65 65 65 66 65 64 60 54 56 60 57 53 51 51 52 52 53 53 52 55 56 55 53 52 49 47 46 45 46 47 46 43 40 43 49 49 48 48 48 48 50 50 48 46 47 50 50 49 49 49 48 46 45 44 44 44 44 44 43 44 47 50 52 51 50 53 54 55 57 58 60 61 62 63 64
62 61 60 60 59 59 60 61 62 63 65 66 65 66 66 66 67 66 65 61 52 54 58 57 55 52 52 55 55 56 55 54 57 57 55 54 51 49 48 46 47 47 47 46 43 43 47 51 50 49 50 49 49 51 50 49 48 51 53 52 52 52 52 49 47 45 44 44 43 42 44 43 39 41 46 49 50 51 53 54 56 57 59 60 62 63 64 65
64 63 62 61 61 60 61 62 62 64 66 67 67 68 67 67 67 66 67 61 51 51 56 57 57 56 56 58 58 58 57 56 57 56 55 54 51 50 49 48 48 49 49 48 46 48 50 51 51 51 51 51 52 52 52 52 52 54 55 55 54 54 52 50 49 49 49 48 45 46 50 47 39 40 45 48 52 55 56 57 58 60 61 62 63 65 66 67
65 65 65 64 63 61 61 62 64 66 67 68 69 69 68 69 67 67 68 59 48 49 55 57 59 59 60 61 61 61 60 58 57 56 56 55 53 51 50 50 50 51 51 49 49 50 51 51 53 53 53 54 54 54 55 56 56 57 58 57 57 55 53 52 53 53 53 52 49 51 56 52 44 43 48 51 55 58 59 61 62 63 65 66 68 69 70 71
66 66 67 66 64 62 62 64 66 68 69 70 70 69 69 68 68 70 66 54 48 50 54 57 59 61 63 65 65 64 62 59 58 56 56 55 54 53 53 53 53 53 52 50 51 52 52 53 54 55 56 56 56 57 58 58 58 59 60 59 58 55 54 55 56 57 57 54 53 56 59 57 50 48 52 56 59 61 62 65 66 68 70 71 72 73 75 75
67 68 68 67 65 64 64 65 68 70 70 71 71 71 70 69 71 70 59 51 53 53 53 56 59 62 65 66 65 64 63 61 59 58 57 56 55 55 55 55 55 54 53 52 54 54 54 54 56 57 58 58 59 59 59 60 60 60 60 59 58 57 58 59 60 61 60 57 56 59 60 60 56 54 58 61 63 65 66 69 72 74 76 76 78 80 81 81
67 68 69 68 68 67 66 67 70 71 71 71 73 72 72 73 72 63 53 53 58 55 53 57 60 62 64 64 63 63 63 62 61 60 60 58 57 56 57 57 56 56 55 55 57 57 56 57 58 59 59 60 60 60 61 63 63 62 61 60 61 61 63 63 63 64 63 60 60 61 62 61 58 59 63 65 67 69 71 74 77 79 81 82 84 86 88 88
68 69 70 70 69 68 68 70 72 72 71 72 74 73 75 76 67 56 54 58 58 55 57 60 60 61 61 61 61 62 61 62 62 63 62 60 59 59 59 59 58 58 57 58 59 58 59 59 59 60 61 62 62 63 64 66 66 65 64 64 65 66 67 67 66 67 65 63 64 64 64 63 61 63 67 70 73 76 79 81 83 85 87 88 91 93 94 94
70 70 72 72 71 69 69 70 71 72 73 74 74 75 78 73 61 55 58 61 60 60 61 62 61 61 60 59 60 61 61 62 63 64 63 62 61 60 61 60 60 60 60 60 60 61 61 60 61 62 63 65 65 66 68 69 69 69 68 69 68 69 71 70 69 68 67 66 66 66 67 66 65 67 70 74 79 83 86 88 90 92 94 96 97 99 101 101
74 72 72 73 73 71 70 70 70 73 75 76 78 80 77 68 61 60 62 63 64 66 65 64 63 62 61 61 61 62 63 64 64 64 63 62 62 62 62 62 62 63 63 63 63 63 63 63 64 66 67 68 69 70 71 72 72 72 72 72 72 73 75 74 71 70 71 71 69 69 70 70 71 73 75 79 84 88 91 92 95 98 99 101 103 104 106 108
78 74 72 72 72 72 73 73 72 74 77 78 82 83 74 67 66 66 66 67 68 69 69 68 66 64 64 63 64 65 65 66 66 65 63 63 64 63 64 65 66 66 65 66 66 65 65 66 68 69 70 71 72 73 75 76 76 76 75 75 75 77 77 76 75 74 75 76 73 72 73 75 76 77 80 86 90 93 95 97 100 102 104 105 107 109 110 112
80 77 74 72 72 72 74 75 76 77 79 81 84 81 72 70 72 72 71 72 73 73 73 71 68 68 68 66 66 67 68 68 68 67 66 67 67 67 68 69 68 68 68 69 69 67 67 68 70 72 73 76 77 77 78 78 79 79 79 78 79 79 78 78 79 79 79 80 78 76 78 79 81 82 85 90 94 97 100 102 104 106 108 110 111 113 114 116
81 79 77 74 73 73 74 76 78 80 83 85 82 76 70 69 72 73 75 76 76 76 75 72 72 72 71 70 69 69 70 69 69 70 70 70 70 70 72 73 71 71 72 72 72 72 73 74 75 76 78 80 81 81 81 82 83 83 82 82 81 80 80 81 83 83 83 85 84 82 82 83 84 88 91 95 98 101 104 106 108 110 112 113 115 116 118 120
83 83 81 76 74 75 76 76 79 83 86 85 80 73 70 69 71 73 74 75 76 75 73 73 74 74 73 72 71 71 71 69 70 71 72 72 72 72 74 76 75 75 76 77 77 78 80 81 80 81 82 83 84 85 85 87 88 87 85 84 82 82 83 84 86 86 87 90 91 90 88 86 87 92 97 100 102 104 106 109 111 113 115 117 119 120 122 123
86 87 83 79 77 77 77 78 81 85 87 83 77 73 72 72 73 72 72 72 73 74 73 73 74 74 73 72 71 71 71 70 71 72 72 72 73 73 76 78 78 79 80 81 82 84 86 86 84 82 83 85 87 88 89 90 90 88 86 84 82 82 85 87 88 88 91 94 96 97 95 91 91 96 101 104 106 107 109 112 114 117 119 121 122 124 125 128
90 89 85 82 80 79 80 82 83 84 82 78 75 73 73 74 74 74 73 73 72 72 74 76 76 75 74 72 70 70 71 72 72 72 72 72 73 75 77 79 81 82 84 86 87 89 90 88 84 83 85 87 89 90 91 90 89 88 86 83 83 84 87 90 91 90 93 97 99 102 102 97 95 99 103 107 109 111 113 116 118 121 123 124 126 128 130 133
91 89 86 85 84 81 82 84 85 83 80 77 76 75 74 74 75 76 76 73 69 68 69 72 75 76 76 75 73 72 72 72 72 73 73 73 75 77 79 81 83 85 88 91 92 91 89 87 85 86 88 90 91 90 90 89 88 87 86 85 85 87 89 92 94 94 96 100 102 105 106 103 101 103 107 110 114 116 119 121 123 125 126 128 130 132 135 137
92 89 87 87 86 83 83 85 85 83 81 80 81 81 78 76 75 77 77 74 71 68 67 68 70 73 75 77 78 78 77 76 75 74 74 75 77 79 82 86 88 90 91 91 90 88 88 89 90 90 90 91 91 90 89 88 88 88 88 87 88 90 91 94 96 98 100 102 103 108 110 108 107 109 111 115 119 122 125 126 127 129 131 133 135 137 138 139
94 92 90 89 88 86 85 86 85 84 83 83 84 84 82 79 77 77 78 77 76 75 74 74 72 73 74 76 78 79 80 80 79 78 79 79 80 82 84 86 87 88 88 88 89 90 92 94 94 92 92 91 91 91 90 90 90 90 90 90 91 92 95 97 99 102 105 105 106 111 112 112 113 116 117 121 125 127 128 129 131 133 136 137 138 140 140 139
97 97 95 92 91 89 88 87 87 86 85 85 85 85 85 83 80 79 80 81 82 82 83 82 80 79 79 78 78 78 80 80 81 82 83 83 85 86 87 86 86 87 89 90 91 93 94 95 94 93 93 93 92 93 93 92 93 94 93 94 95 96 98 101 104 107 109 110 111 113 115 117 120 121 124 127 129 130 131 133 135 137 139 140 140 140 140 140
100 99 99 98 95 93 90 89 89 89 87 87 88 89 89 88 86 85 85 86 87 88 88 88 88 87 85 83 82 82 82 83 84 84 84 85 87 89 90 90 90 90 91 92 93 94 94 95 94 95 95 95 94 95 95 95 96 97 97 97 98 100 102 105 108 111 114 116 117 116 118 123 125 126 129 132 133 134 136 138 139 140 141 142 142 142 142 142
102 101 101 102 101 98 94 92 92 92 91 92 92 93 93 92 91 90 89 90 90 91 93 93 94 93 91 89 88 89 89 89 89 87 86 87 89 90 92 92 93 93 94 95 96 96 98 97 96 97 98 97 98 98 98 98 99 99 99 99 100 103 106 108 112 114 117 121 122 121 124 128 129 130 133 136 138 140 141 142 142 143 144 145 144 144 144 144
103 102 102 103 104 102 99 96 95 95 95 96 96 96 95 94 93 93 93 93 94 95 96 97 97 97 97 96 96 96 95 94 93 91 91 92 93 94 94 95 95 95 96 98 99 100 101 101 99 100 101 100 101 101 101 101 102 102 102 101 103 106 108 111 115 117 121 125 126 126 129 133 132 133 136 140 142 144 144 145 146 147 148 147 146 146 146 144
104 103 102 103 104 104 103 101 100 100 99 98 98 97 95 95 95 96 96 97 98 98 99 100 100 100 101 102 102 101 98 97 96 97 98 99 99 99 98 98 99 99 100 101 102 103 104 103 102 103 103 103 103 103 103 104 105 106 105 105 107 109 112 115 118 121 125 129 130 131 135 136 135 136 140 143 145 146 148 150 151 150 149 148 148 147 146 144
104 104 104 104 104 105 105 106 105 104 103 102 100 98 97 98 98 98 99 100 101 102 102 102 102 103 105 107 107 104 101 100 101 102 103 104 104 103 103 103 103 103 103 103 104 105 106 105 105 105 105 106 105 106 108 109 109 110 110 109 111 114 117 120 123 125 129 132 134 137 139 138 138 141 144 146 148 151 154 154 153 151 149 149 149 147 145 142
106 106 106 106 106 106 106 107 108 109 108 106 103 101 100 100 99 100 101 102 102 102 103 103 104 105 108 110 109 105 103 104 106 106 106 106 106 106 106 105 105 105 105 106 106 107 107 107 106 106 108 109 109 110 112 113 115 115 113 112 115 120 122 125 127 130 133 135 138 141 142 142 142 144 147 150 153 156 157 155 153 152 151 150 149 147 144 140
110 109 109 108 108 108 108 108 109 110 109 107 105 104 103 102 101 103 104 104 103 103 103 104 105 107 109 111 110 108 108 109 110 109 108 109 109 108 107 106 106 105 106 106 107 108 108 108 109 110 112 113 114 115 117 120 121 119 114 114 120 124 127 129 132 133 136 139 142 144 145 144 146 149 152 155 157 158 157 155 154 153 152 151 149 146 142 137
Wind_Direction
241 241 241 243 244 246 247 248 250 252 254 255 255 256 256 257 258 258 260 260 262 263 264 264 265 266 266 267 268 269 269 269 269 269 268 269 270 271 272 272 273 273 274 274 275 276 278 280 281 283 284 286 288 290 289 289 289 291 292 291 290 289 289 287 286 285 284 283 280 279 280 283 285 287 287 286 278 261 267 291 300 304 305 303 301 298 293 287
240 240 241 242 243 245 247 248 250 251 253 254 255 256 257 257 258 259 260 261 262 263 264 264 265 266 267 268 269 270 271 271 271 270 270 270 271 271 272 272 272 273 274 274 275 276 277 279 280 281 282 284 286 286 286 287 288 290 291 291 290 291 290 288 287 286 286 284 282 280 280 283 284 285 285 285 283 275 269 274 286 294 297 299 299 295 290 285
239 239 240 241 242 244 245 247 249 251 252 254 255 256 257 258 258 259 259 260 261 262 263 264 265 266 268 269 271 272 273 273 272 271 271 271 271 271 272 273 273 274 273 274 274 275 276 277 279 280 281 282 283 283 283 284 286 289 290 289 290 291 291 289 288 288 287 285 284 282 281 283 285 285 285 285 284 281 277 273 273 275 279 286 290 290 287 285
239 239 239 240 241 242 244 246 248 250 251 253 254 255 256 257 257 257 258 259 259 260 261 263 264 266 268 269 271 272 273 273 273 272 272 272 271 271 272 273 274 274 274 274 274 274 275 277 278 279 280 282 282 281 281 283 286 287 288 289 289 290 290 290 289 289 287 286 284 283 282 283 285 285 286 286 284 282 281 279 274 267 266 272 280 284 286 286
240 240 240 240 241 242 244 245 247 249 250 252 253 254 255 255 256 256 256 257 258 259 261 262 264 266 267 269 270 271 272 272 272 272 272 272 271 271 271 272 272 273 273 273 274 275 276 277 277 277 279 280 280 280 281 283 285 286 288 289 289 289 289 289 289 288 287 286 285 284 283 283 282 281 282 283 283 282 282 281 278 271 268 267 271 276 281 283
241 241 241 241 242 242 243 244 246 248 250 251 253 253 254 255 255 255 255 256 257 258 259 261 263 265 267 268 269 269 270 270 270 272 272 272 271 270 270 271 271 271 271 272 273 274 275 275 275 276 277 278 280 281 283 285 286 286 287 288 289 289 287 287 288 288 286 285 285 284 284 285 283 280 279 281 283 284 286 286 282 274 269 267 268 270 273 276
241 242 242 242 243 243 243 245 246 248 250 251 252 253 254 255 255 255 255 256 256 258 259 261 262 264 265 266 267 268 269 269 269 270 271 271 271 270 269 269 270 271 271 272 272 273 274 274 274 276 277 278 280 283 284 286 286 286 286 286 288 288 287 287 287 285 284 284 285 285 284 284 283 281 280 280 281 283 285 287 286 280 273 268 267 268 271 274
241 242 242 243 244 244 244 244 246 248 250 251 253 254 254 254 255 255 255 256 256 258 259 261 262 263 264 265 266 266 267 267 268 269 269 270 270 271 271 270 271 271 272 273 273 274 275 275 276 277 278 279 280 282 283 284 285 286 286 286 285 284 285 286 284 282 282 283 285 285 283 281 280 280 279 279 280 281 282 284 285 283 279 275 271 269 270 274
241 241 242 243 244 244 243 244 245 247 250 251 253 254 254 254 255 255 255 256 256 258 259 260 261 262 263 263 264 265 265 265 266 268 268 269 270 271 272 272 272 273 273 274 274 275 276 276 277 278 279 279 281 281 282 282 284 286 287 287 286 285 285 284 282 281 282 283 285 284 283 281 280 279 279 281 283 284 285 285 285 283 282 280 278 276 274 274
243 242 242 243 243 243 243 243 244 247 249 251 253 254 254 254 255 255 255 256 257 258 259 259 260 261 262 262 262 263 264 264 265 266 268 269 269 271 271 272 273 273 274 274 275 275 276 276 277 278 279 280 281 281 281 282 283 286 287 287 288 288 287 285 284 283 283 285 286 285 284 282 281 281 281 283 285 286 287 287 284 282 281 282 281 281 279 276
246 245 244 243 243 242 242 242 243 245 248 250 252 253 254 254 254 254 255 256 257 257 258 259 259 260 261 262 262 263 263 264 265 266 267 269 269 270 271 272 272 273 273 273 274 275 275 276 277 279 280 280 281 281 281 282 283 284 285 286 287 288 287 286 285 286 286 287 287 287 287 285 284 283 283 285 285 286 287 287 284 283 282 283 283 283 282 280
248 248 247 246 244 243 242 242 243 244 246 249 251 252 253 253 253 254 254 255 256 257 258 258 259 260 260 261 262 264 264 264 266 267 267 268 269 270 271 272 272 272 272 272 273 274 275 275 277 278 279 279 280 279 280 281 281 282 284 285 285 285 284 285 286 286 287 288 288 289 289 288 285 285 286 287 287 287 287 285 285 285 286 286 285 285 284 284
248 248 248 247 246 246 244 243 243 244 246 248 250 251 252 252 252 253 254 254 255 256 257 258 259 259 260 261 263 264 265 265 267 267 267 267 268 270 271 272 272 272 272 272 273 273 274 275 276 277 277 277 278 278 278 279 280 282 282 284 284 284 282 283 285 285 287 288 289 290 289 288 287 287 289 290 289 288 287 284 284 285 286 287 286 285 285 285
249 248 248 248 248 248 247 246 245 245 246 247 248 250 251 251 251 251 253 253 254 255 256 257 258 259 259 260 262 264 265 266 266 266 267 267 268 269 269 270 270 270 271 272 273 273 274 275 275 275 275 276 276 276 277 279 281 282 282 283 283 283 283 283 283 283 285 286 287 287 288 287 287 289 291 291 290 289 287 285 284 284 284 284 284 285 285 285
249 249 249 249 249 249 249 249 248 247 247 247 248 250 251 251 250 251 252 252 253 254 255 256 256 257 258 259 261 262 263 264 264 265 265 265 266 266 266 267 267 268 269 270 271 272 273 275 275 275 275 274 274 275 277 280 281 281 281 281 281 282 283 283 282 283 285 287 287 287 286 286 287 290 291 291 290 289 287 285 285 284 284 284 284 284 285 285
248 249 249 249 249 250 250 250 249 249 248 248 249 249 250 250 249 250 251 252 252 252 253 254 255 255 256 258 259 260 260 261 262 262 262 263 263 264 264 264 265 266 267 268 270 271 273 275 275 275 275 274 274 276 280 282 281 280 281 280 281 282 283 283 283 285 287 288 288 287 287 287 289 290 291 292 292 290 288 286 286 285 285 285 285 285 284 284
246 247 248 249 249 250 250 250 250 250 249 249 249 249 250 250 249 249 250 251 251 251 251 252 253 253 254 256 257 258 259 259 259 260 261 262 262 262 263 263 264 264 265 266 268 270 272 274 274 274 273 273 275 279 283 282 280 280 281 281 281 281 281 281 283 286 288 288 288 287 287 288 288 289 291 291 291 291 291 290 290 289 288 288 288 287 287 286
244 246 248 249 249 250 250 250 250 250 249 249 249 249 249 250 249 249 249 250 250 250 250 250 251 251 252 254 255 257 257 259 260 261 261 261 261 261 262 262 263 264 264 266 268 270 272 272 272 272 271 272 277 281 280 278 279 280 281 280 279 278 278 279 282 286 286 286 286 285 286 286 286 287 289 290 290 290 290 291 291 291 291 291 291 291 290 289
244 246 247 248 249 249 249 249 249 249 249 249 248 249 249 249 249 249 249 249 249 249 249 249 249 250 251 253 254 256 258 259 260 261 260 260 260 261 261 262 262 263 264 265 267 269 269 269 271 270 270 273 277 277 275 275 277 279 279 278 276 277 276 277 281 284 283 284 284 283 285 284 283 285 287 288 288 289 289 290 290 289 289 289 290 290 290 290
243 245 246 247 248 248 248 249 249 249 249 248 248 248 249 249 249 249 249 249 248 248 248 248 249 250 250 252 254 255 257 258 259 259 259 259 259 259 259 259 261 262 263 265 266 266 267 268 269 269 271 275 275 274 274 275 276 276 275 275 275 275 275 277 281 281 281 282 282 283 285 283 283 284 285 285 286 286 286 287 287 286 286 286 287 287 287 288
242 244 245 246 247 247 247 248 248 248 248 248 248 247 247 248 248 248 248 248 248 248 248 248 249 250 251 252 253 254 254 256 257 257 258 258 258 258 257 259 260 261 263 264 264 264 266 268 269 270 273 275 273 273 274 275 274 274 273 273 274 273 274 277 279 279 280 282 283 284 286 285 285 285 285 285 285 285 285 285 285 285 285 286 286 286 285 285
241 242 244 245 245 246 246 247 247 247 247 247 247 246 246 246 246 247 247 247 248 248 248 249 250 250 251 252 252 253 254 254 255 256 257 257 257 257 258 260 261 262 264 264 263 263 266 269 269 271 273 273 273 274 274 273 272 271 272 272 272 273 274 277 278 279 281 282 283 285 286 287 287 287 287 287 287 287 287 287 286 286 287 287 286 286 285 285
240 241 243 244 244 245 246 246 247 247 247 246 246 246 245 245 245 246 246 246 247 249 249 249 250 250 252 252 253 254 254 253 254 255 256 257 257 258 259 261 262 264 265 263 262 264 267 269 269 271 272 272 273 275 274 273 271 272 273 273 273 274 275 276 277 279 280 281 282 283 285 287 287 287 288 288 288 289 289 289 288 288 288 288 287 287 286 286
241 242 243 244 244 244 245 246 246 247 246 246 246 246 245 245 245 245 245 244 246 248 249 249 249 250 252 254 255 254 253 253 255 256 257 257 257 258 259 262 265 266 264 263 264 266 268 268 267 268 270 272 274 275 275 274 275 277 277 275 274 275 275 275 276 278 279 280 281 281 282 284 285 286 286 287 288 289 289 289 288 288 288 287 287 286 286 286
240 242 244 244 244 244 244 245 246 246 246 246 246 246 246 245 245 245 245 245 245 247 249 249 250 252 254 256 255 253 252 254 256 257 257 258 260 261 261 263 265 265 263 264 265 267 267 265 265 268 271 273 275 275 275 276 278 278 276 274 274 275 277 277 277 278 280 281 281 281 282 282 283 286 287 287 288 290 289 288 288 287 287 286 285 285 285 284
240 241 243 244 244 244 244 245 245 246 246 247 247 247 247 246 246 247 247 248 246 247 250 252 252 253 255 255 255 253 253 254 256 257 258 260 261 262 262 264 264 263 263 264 265 265 265 264 268 271 273 274 275 276 276 277 278 276 275 275 276 277 278 279 279 280 281 282 283 284 283 281 281 285 287 288 289 288 287 286 286 286 286 285 285 285 285 284
240 240 241 243 243 244 244 245 245 246 246 247 247 247 248 247 248 248 249 250 248 248 252 255 256 255 254 254 255 254 254 254 255 257 259 260 261 262 262 263 263 262 263 264 265 265 264 268 272 273 274 275 276 276 277 278 278 276 276 278 278 279 279 278 278 279 280 280 280 282 281 278 278 281 283 287 290 289 287 287 286 286 286 286 286 285 284 284
242 241 241 242 242 243 244 244 245 245 245 246 247 247 248 248 248 249 250 250 248 248 252 256 257 256 254 254 254 255 255 254 255 257 259 260 261 261 261 261 261 262 264 265 266 265 267 270 272 273 275 276 276 277 279 280 279 279 280 280 280 280 279 277 277 279 279 278 278 280 279 276 276 279 280 285 290 291 292 293 293 294 294 295 295 293 292 290
244 244 244 244 244 244 244 244 244 245 245 245 246 247 247 248 248 249 250 251 250 249 252 254 255 256 256 256 256 255 255 255 256 257 259 260 261 261 261 261 262 263 265 266 267 267 269 271 272 274 275 276 276 278 279 279 280 281 281 281 281 280 278 276 277 278 278 279 281 281 281 279 279 280 280 283 287 289 291 293 295 297 298 300 301 301 300 299
240 243 245 246 247 247 247 246 245 245 245 244 245 245 246 247 248 249 250 253 253 250 250 252 253 254 255 256 256 257 257 256 255 256 257 259 260 261 261 262 263 264 266 268 268 268 269 270 272 274 275 276 277 278 278 280 281 282 282 281 280 279 277 276 277 278 279 280 282 282 283 283 282 282 282 282 284 286 289 292 294 296 297 298 300 301 301 300
242 242 243 245 246 247 247 248 247 247 246 246 246 245 245 246 247 248 252 255 253 251 251 251 252 253 254 255 256 257 258 257 256 256 257 258 260 261 262 263 264 265 266 267 267 267 269 270 272 273 274 276 276 277 278 279 280 281 281 280 278 276 276 276 278 279 280 281 282 284 286 287 288 288 286 285 285 286 289 292 294 296 298 299 300 301 301 300
245 244 243 244 245 246 247 248 248 249 249 249 249 248 248 247 247 251 255 254 253 254 253 251 250 251 252 254 255 256 258 258 258 257 258 259 260 261 262 263 264 264 265 265 266 268 270 271 272 272 273 274 275 276 277 277 279 280 279 277 276 275 275 277 278 280 282 284 285 287 288 290 293 294 294 294 293 292 294 296 298 299 300 301 301 302 302 301
245 245 244 243 243 244 245 247 248 249 250 251 251 252 252 251 253 256 257 255 255 255 253 251 250 250 251 253 255 256 257 258 258 259 260 260 261 261 261 262 262 263 264 265 267 269 270 271 271 272 272 273 274 275 276 277 278 279 278 277 277 277 277 277 279 281 284 286 287 289 291 292 296 298 300 302 301 302 303 302 303 303 303 303 303 303 303 303
245 246 246 244 243 243 244 246 248 250 251 251 251 252 252 254 258 260 259 258 257 256 253 253 253 253 254 254 255 257 257 257 258 258 259 261 261 261 261 261 261 263 264 266 268 269 270 271 271 272 273 274 274 275 276 278 279 279 279 279 279 280 280 280 282 284 286 287 288 291 293 296 299 301 303 305 305 306 306 306 306 306 305 305 304 304 305 305
245 247 247 246 244 244 244 245 247 249 250 251 251 251 251 254 257 257 257 258 257 257 257 256 256 256 256 256 256 256 256 257 257 257 258 259 259 259 259 260 261 263 265 266 267 268 270 271 273 274 275 275 276 277 278 279 280 280 280 281 282 282 283 284 286 287 289 289 290 294 297 301 304 305 307 307 307 306 307 307 307 305 305 304 304 305 305 306
246 247 248 247 246 245 245 245 245 247 249 250 251 251 251 253 254 254 254 255 256 257 257 258 258 258 258 257 256 256 256 256 256 257 257 257 257 258 259 260 262 264 265 266 266 267 270 272 274 276 277 278 278 279 280 281 282 282 282 283 283 284 286 288 290 291 293 293 295 298 301 304 306 308 309 308 307 307 308 307 306 304 304 303 304 305 305 306
247 248 249 248 247 246 246 246 246 246 247 249 250 251 251 252 253 254 254 255 255 256 257 258 259 259 258 258 257 257 258 257 257 257 257 257 257 258 259 261 263 265 265 265 265 266 269 272 275 278 280 282 282 283 284 285 286 285 285 285 286 287 289 291 293 295 297 297 299 302 304 306 308 309 309 307 307 308 307 306 304 304 303 303 303 304 305 305
248 249 249 248 247 247 246 246 247 248 249 249 250 252 252 252 252 253 254 254 255 256 257 258 259 259 259 259 259 259 258 258 258 257 257 257 258 258 260 262 264 264 264 264 264 266 269 272 275 278 281 282 283 285 286 287 287 286 285 286 287 289 291 293 295 297 299 300 301 303 304 306 308 308 307 306 306 306 305 304 303 302 302 302 302 303 303 303
248 249 249 249 249 248 247 247 247 248 249 250 251 253 253 253 252 252 253 254 255 256 257 258 259 260 260 260 260 260 259 259 258 257 257 258 259 259 261 263 264 264 264 264 264 266 270 274 276 278 279 281 283 285 286 286 286 286 287 287 289 292 294 296 297 299 302 302 303 303 304 307 307 306 306 305 304 303 302 301 301 301 301 301 301 301 301 302
248 249 250 251 251 249 248 248 248 248 249 251 253 253 253 253 252 252 253 254 256 258 259 259 260 261 262 262 261 260 260 260 259 259 260 261 262 262 262 263 264 265 265 265 266 269 272 276 278 278 278 280 282 283 284 285 286 287 288 290 293 295 296 297 299 302 303 302 302 302 303 305 305 305 305 303 301 299 299 298 299 300 301 301 300 300 301 302
249 251 252 253 253 251 249 250 250 250 251 253 254 254 254 254 254 253 253 253 256 259 261 261 261 261 262 262 262 262 261 261 261 262 263 264 264 264 263 264 265 266 268 269 270 273 275 276 277 277 278 279 280 281 283 284 286 288 290 293 296 297 298 299 300 301 299 298 299 300 301 303 304 302 301 299 297 297 296 297 299 300 300 300 300 301 301 302
251 252 253 255 254 252 250 250 251 251 252 253 254 255 254 254 253 253 253 253 258 263 264 264 263 261 259 259 260 261 261 261 262 264 265 266 266 265 265 265 266 268 270 272 273 274 275 276 276 276 277 278 279 281 283 285 287 290 293 295 297 298 299 299 298 298 296 296 298 298 298 302 302 299 297 296 296 296 297 299 299 299 299 300 300 301 302 303
253 253 254 255 255 254 252 252 252 253 253 254 255 256 257 256 255 255 256 257 261 265 267 267 266 264 261 259 259 260 260 261 262 264 265 267 267 268 267 266 267 268 271 273 273 273 274 275 276 276 277 278 281 283 285 287 290 293 295 297 298 298 297 295 295 296 295 296 297 296 297 301 300 296 295 296 297 298 299 300 299 299 300 301 302 302 303 303
255 255 254 254 255 255 254 254 255 255 255 256 256 258 260 260 260 261 262 263 265 266 266 267 268 267 266 263 262 263 263 264 265 265 266 267 268 269 269 268 268 269 271 271 272 272 274 275 276 277 279 281 284 286 288 290 293 294 296 297 296 294 293 293 294 294 294 296 296 295 297 299 296 295 296 298 298 299 299 299 299 299 301 302 302 303 303 303
253 255 255 254 254 254 255 256 256 257 257 258 260 261 261 262 262 263 264 265 265 266 266 267 268 268 268 267 267 267 267 268 268 267 267 268 269 270 270 271 270 270 271 271 272 273 275 277 279 281 283 285 288 290 292 293 294 295 296 295 294 293 293 293 294 294 296 296 295 295 296 295 294 296 298 298 298 298 298 298 299 300 302 302 303 303 303 303
250 252 254 254 254 253 254 255 256 257 258 259 260 261 261 262 262 263 263 264 265 266 267 268 268 269 269 270 270 270 269 269 269 269 270 270 271 272 273 273 274 274 275 275 277 278 279 281 283 285 287 289 291 292 293 294 293 294 294 293 293 293 293 294 295 296 296 294 293 294 294 293 295 298 299 298 297 298 298 299 301 302 303 302 302 302 303 303
249 250 252 254 254 253 253 253 254 255 256 257 258 259 260 262 263 264 265 265 266 267 267 268 269 270 272 272 272 272 271 272 272 274 275 275 274 275 275 276 277 278 279 281 282 282 283 285 286 288 290 292 292 292 292 292 291 291 290 290 291 291 291 293 294 294 293 291 291 293 294 294 297 298 298 297 297 298 299 301 302 302 302 302 302 303 303 303
248 249 250 252 254 254 254 253 253 253 253 254 256 258 259 261 263 265 266 267 267 267 267 269 270 272 273 273 273 273 274 275 277 279 279 278 278 277 278 278 280 281 282 283 284 285 286 287 289 290 291 291 291 291 290 289 289 288 288 289 288 289 291 293 292 291 289 289 291 293 294 295 296 297 297 296 297 299 301 302 302 302 302 302 303 303 303 303
247 248 249 250 252 254 255 254 253 252 252 253 255 257 259 261 263 264 265 266 266 266 267 268 270 271 271 272 273 274 277 279 280 281 280 280 280 281 281 282 283 283 284 284 285 286 287 288 290 290 290 290 290 289 288 287 286 287 287 288 288 289 291 290 289 288 288 290 292 293 293 295 296 296 296 296 298 300 301 302 302 302 302 303 303 303 303 303
247 247 248 249 250 252 255 256 256 255 255 255 256 257 259 260 261 262 263 263 263 264 265 266 268 269 269 270 272 275 278 279 279 279 279 280 281 282 283 283 284 284 285 285 286 286 287 288 289 289 288 287 287 286 284 284 285 285 287 289 289 289 288 287 287 289 290 291 292 293 293 295 296 296 296 297 299 300 301 302 302 302 302 302 302 303 303 303
249 249 249 250 250 251 253 255 257 258 258 259 260 260 260 259 260 260 260 261 261 263 264 265 266 267 268 269 272 275 277 276 276 277 278 279 279 280 280 282 283 283 284 285 285 286 287 287 287 286 284 283 283 282 282 282 283 285 289 291 289 287 286 287 289 290 291 291 292 293 295 296 296 296 297 298 299 300 301 301 301 301 302 302 303 303 303 302
250 250 251 251 252 252 253 254 256 258 260 262 263 263 262 261 261 261 261 262 263 264 264 265 265 266 267 270 273 274 275 275 276 277 278 278 278 279 281 282 283 283 284 285 285 286 286 285 284 283 281 281 281 281 281 281 283 288 291 289 286 285 287 288 289 290 290 291 292 294 295 296 296 297 297 298 299 300 300 301 301 301 302 303 303 302 301 301